Regional Weather Roundup
Issued by NWS

Home | Current Version | Previous Version | Text Only | Print | Product List | Glossary On
Versions: 1 2 3 4 5 6 7 8 9 10 11 12 13 14 15 16 17 18 19 20 21 22 23 24 25 26 27 28 29 30 31 32 33 34 35 36 37 38 39 40 41 42 43 44 45 46 47 48 49 50
000
ASUS46 KPQR 070110
RWROR

OREGON REGIONAL WEATHER ROUNDUP
NATIONAL WEATHER SERVICE PORTLAND OR
500 PM PST FRI MAR 06 2015

NOTE: "FAIR" INDICATES FEW OR NO CLOUDS BELOW 12,000 FEET WITH
NO SIGNIFICANT WEATHER AND/OR OBSTRUCTIONS TO VISIBILITY.

ORZ001>013-070200-
NORTHWEST OREGON


CITY           SKY/WX    TMP DP  RH WIND       PRES   REMARKS
ASTORIA        PTSUNNY   54  47  77 W7        30.34F
NEWPORT        MOSUNNY   52  48  87 NW5       30.37S
PORTLAND       CLOUDY    64  38  38 W7        30.32F
VANCOUVER WA   PTSUNNY   63  39  41 W5        30.31F
SCAPPOOSE      PTSUNNY   64  35  34 CALM      30.31F
HILLSBORO      PTSUNNY   65  36  34 NE6       30.31F
AURORA         PTSUNNY   66  36  32 NE3       30.32F
MCMINNVILLE    PTSUNNY   64  45  49 CALM      30.32F
SALEM          PTSUNNY   64  40  41 NE6       30.30F
CORVALLIS      PTSUNNY   66  43  42 NE5       30.32S
EUGENE         PTSUNNY   61  44  53 N6        30.30F
$$

ORZ021-028-070200-
SOUTHWEST OREGON


CITY           SKY/WX    TMP DP  RH WIND       PRES   REMARKS
NORTH BEND     PTSUNNY   54  50  87 N8        30.34F
BROOKINGS      MOSUNNY   58  46  64 NW7       30.28F
ROSEBURG       PTSUNNY   70  41  34 N6        30.27F
SEXTON SUMMIT  MOSUNNY   54  38  54 NW5       30.31F
MEDFORD        MOSUNNY   70  34  26 CALM      30.24F
$$

ORZ014>016-041-070200-
COLUMBIA GORGE


CITY           SKY/WX    TMP DP  RH WIND       PRES   REMARKS
TROUTDALE      MOCLDY    64  39  39 CALM      30.30F
THE DALLES     MOCLDY    66  36  32 CALM      30.27F
$$

ORZ029>031-041-044-049-050-061>064-502-503-505>511-070200-
EASTERN OREGON


CITY           SKY/WX    TMP DP  RH WIND       PRES   REMARKS
REDMOND        PTCLDY    65  19  17 N6        30.29S
BEND           PTCLDY    63  19  19 NE6       30.29S
PRINEVILLE     PTCLDY    63  16  16 CALM      30.30S
KLAMATH FALLS  MOSUNNY   63  21  20 N7        30.30F
LAKEVIEW       CLEAR     63  10  13 CALM      30.33F
HERMISTON      PTCLDY    64  31  28 CALM      30.28F
PENDLETON      MOCLDY    62  30  29 CALM      30.29F
JOHN DAY       PTCLDY    58  29  33 SW5       30.32F
MEACHAM        PTCLDY    52  24  33 CALM      30.33F
LA GRANDE      PTCLDY    63  25  23 SW6       30.29F
BAKER CITY     PTCLDY    57  24  28 NE8       30.31F
BURNS          PTCLDY    60  17  18 SE3       30.33F
ROME             N/A     61  11  14 NE5       30.32S
ONTARIO        CLEAR     60  23  24 CALM      30.34F
$$


USA.gov is the U.S. government's official web portal to all federal, state and local government web resources and services.